2019-038M (44397 NORAD) Tracking and Keplerian Element Data

This shows tracking and keplerian element data for the satellite.

Feedback or suggestion? Click here.




ElementValue
Catalog44397
Name2019-038M
Epoch Orbit187
Epoch Day198.878317
Epoch Year2019
RAAN160.5817
Inclination97.4905
Eccentricity0.0025186
Argument of Perigee198.0511
Mean Anonmoly161.9828
Mean Motion15.11512717
Decay Rate3.21E-06
L11 44397U 19038M 19198.87831700 .00000321 00000-0 22654-4 0 9999
L22 44397 97.4905 160.5817 0025186 198.0511 161.9828 15.11512717 1870

Live tracking and technical data element details for 2019-038M (NORAD 44397). 2019-038M can be tracked NOW for your location showing map with azimuth and elevation plus other details from your city location.

Track the satellite on the map from your city or location and see movement details for azimuth, elevation, latitude, longitude, range, height, and movement on the map or in text.







IsCatalogInMostPopularTable: catalog: 44397, numindb: 2
Update: records affected: 1



GetName: 44397 2019-038M

Hit Count: updated at: Fri, 19 Jul 2019 08:40:56 GMT